STARLINK-35660, 67003

Orbit data source: Space-Track

STARLINK-35660, 67003 is a payload satellite owned by SpaceX/Seattle (US) in LEO that was launched on Wed, 10 Dec 2025 UTC via an FALCON 9 launch vehicle from the Air Force Western Test Range (AFWTR). Payload-class satellites include a variety of spacecraft equipped with specific instruments for various scientific and technological missions. These include communications satellites like Starlink; space stations such as the ISS; scientific satellites like the Hubble; Earth observation satellites from companies like Planet Labs, Umbra, and HawkEye 360; GPS; miniature CubeSats for education and research; and military/defense satellites.

Loading next visibility...
Identifier
67003, 2025-293A
Orbit
LEO
Country
Flag of USUS
Related business
Manufacturer
SpaceX/Seattle
Mission
Operational Commercial Communications
Bus & Motor
STARLINK V2MO, Unknown motor
Mass
575 kg wet, ~530 kg dry
Launch date (UTC)
2025-12-10 (6 months ago)
Launch vehicle
FALCON 9
Launch site
Air Force Western Test Range (AFWTR)
Object type
Payload
Rocket body
Debris
Shape & HBR
Box + 2 Pan, 17.7 m
Radar Cross Section
36.964 m², Large (>1 m²)

Expand to show TLE details & history
Last TLE update: 11 hours ago

TLE from 11 hours ago
0 STARLINK-35660
1 67003U 25293A   26171.43855477  .00002909  00000-0  25142-3 0  9994
2 67003  70.0006 195.5886 0004139 268.6287  91.4398 14.98336729 30277
Epoch: 2026-06-20T10:31Z
TLE epoch observation values (Epoch: 2026-06-20T10:31:31.132Z)
Latitude
Longitude
129.05571°
Altitude
574.532 km
Speed
7.574 km/s
True Right ascension
13h 02m 21s
True Declination
0° 00' 00"
Sunlit
Object was in daylight at epoch
Visualization orbit readout
Latitude
Unknown
Longitude
Unknown
Altitude
Unknown
Speed
Unknown
Apparent Right ascension
Unknown
Apparent Declination
Unknown
Sunlit
N/A
Visualization observer readout
Local Sidereal Time
08:32:47
Azimuth
Unknown
Elevation
Unknown
Doppler factor
Unknown
Orbital elements
Apogee altitude
572.859 km
Perigee altitude
567.107 km
Semi-major axis
6,948.12 km
Eccentricity
0.00041
Inclination
70.0006°
RAAN
195.5886°
Arg. of periapsis
268.6287°
True anomaly
91.48721°
Mean anomaly
91.4398°
Eccentric anomaly
91.46351°
Mean motion
3.7475 °/min
Orbital period
96.06 mins
BSTAR
0.00025142
Loading maneuver chart data...
Computing Atmospheric mass density...
Loading historical data...
Loading historical data...
Loading historical data...
Loading historical data...
Loading historical data...
Loading historical data...
Loading historical data...

Documentation

Showing up to 5 results
|